Wind_Speed
6 6 6 4 4 3 3 4 4 5 6 6 7 9 11 13 11 14 12 5 2 3 4 5 8 3 2 2 3 1 3 2 3 2 2 13 5 10 7 18 7 10 12 22 35
7 6 7 4 5 3 3 4 4 5 6 6 7 9 12 14 14 7 4 2 2 2 2 4 7 6 4 5 6 6 3 3 3 6 5 7 14 13 6 9 4 16 16 38 36
7 6 7 4 4 4 4 4 5 6 6 7 7 10 11 14 7 3 4 4 6 3 2 3 0 5 7 7 8 5 3 6 8 16 13 13 13 7 17 2 11 30 34 38 37
7 7 7 6 5 5 4 4 5 6 6 6 7 10 11 10 1 2 2 7 6 4 1 2 2 4 3 3 5 4 3 7 16 23 10 9 12 9 4 4 21 24 36 39 39
7 8 7 6 6 5 4 5 6 6 6 7 8 10 10 7 4 2 1 7 8 5 5 6 10 6 5 3 4 1 6 11 24 24 5 11 9 7 6 15 20 24 33 31 34
8 9 7 7 7 6 5 5 6 7 6 7 8 10 10 5 1 2 5 9 6 5 4 3 4 8 9 3 2 2 12 16 16 21 5 10 5 8 9 21 27 28 33 32 31
9 9 8 8 7 7 6 5 6 7 7 7 8 11 13 12 3 1 7 8 5 4 5 2 4 4 1 3 7 6 9 15 5 4 3 16 5 1 23 26 28 29 30 30 27
10 10 9 8 7 7 6 5 6 8 8 8 8 11 9 3 8 8 10 9 5 3 2 2 6 2 1 3 4 5 4 5 5 1 4 4 3 3 23 27 25 30 30 30 30
10 11 9 9 7 7 6 6 6 8 9 8 8 7 10 9 12 8 14 10 5 6 7 6 18 4 1 4 3 1 3 5 7 8 2 2 4 6 25 23 23 27 30 32 31
10 11 10 9 7 6 6 4 5 8 9 9 12 8 7 5 10 13 13 11 6 4 8 4 4 2 1 2 4 5 4 5 5 2 4 3 3 7 23 23 24 28 31 31 31
11 11 10 8 7 6 4 2 4 4 9 10 5 8 12 4 7 13 16 17 6 4 3 2 4 7 13 8 2 3 4 6 5 8 1 5 3 12 20 20 19 26 31 31 31
11 11 10 7 7 7 5 3 4 6 9 14 18 24 22 19 7 10 19 13 4 4 1 2 4 13 10 8 10 8 6 7 11 12 6 4 4 3 10 17 25 27 31 33 30
11 11 9 8 8 8 7 3 3 12 3 9 16 17 20 15 13 16 19 8 5 7 7 5 3 7 9 8 11 11 7 8 5 3 4 5 4 5 5 14 21 25 31 33 33
11 10 8 7 7 8 5 5 7 3 4 6 6 9 12 8 6 18 22 8 1 6 6 5 3 7 7 9 10 3 8 12 5 3 4 3 3 5 6 7 7 21 28 35 35
11 10 9 10 4 8 7 3 1 5 1 3 5 2 10 16 5 12 27 11 6 6 4 5 6 7 7 5 8 9 2 9 3 5 4 0 3 7 3 7 10 17 31 37 39
11 10 11 13 13 5 2 1 10 6 4 4 7 6 6 5 3 6 7 4 4 4 3 6 4 4 7 5 9 5 6 4 4 4 2 5 5 5 5 10 6 12 30 37 41
10 11 12 13 7 5 1 7 4 3 5 6 3 4 3 2 4 3 5 4 4 2 4 7 4 4 4 3 3 5 6 3 3 3 5 2 4 9 4 8 10 14 29 39 40
9 11 13 14 10 2 5 4 3 4 5 5 4 4 6 3 4 3 4 4 2 4 1 2 7 2 3 5 5 5 7 6 6 4 3 2 4 5 6 10 9 10 26 33 34
7 9 13 11 13 4 3 3 6 5 3 5 7 4 5 7 4 2 6 5 3 4 5 2 6 5 6 4 7 3 3 4 7 2 3 2 6 6 6 8 10 8 3 15 18
5 6 11 13 14 7 4 5 4 3 4 2 2 2 2 5 7 6 4 2 3 2 6 3 4 2 7 3 1 4 6 1 3 4 2 4 4 4 9 6 7 10 10 6 6
4 3 4 16 15 3 4 6 4 5 4 4 4 2 1 4 3 1 5 2 2 2 2 3 2 7 2 2 2 4 2 7 6 4 5 2 5 4 9 6 8 6 9 7 7
2 2 15 23 4 1 3 6 4 2 12 4 3 6 6 5 2 3 3 3 15 12 4 6 4 2 8 7 2 2 2 3 5 2 2 4 4 6 7 5 17 18 23 19 15
0 4 24 13 3 2 4 4 4 2 2 6 6 1 6 2 3 4 4 9 13 6 6 4 0 3 6 6 5 4 2 5 6 3 2 5 4 2 8 7 15 19 16 15 13
1 3 5 9 5 5 2 4 1 5 6 4 22 3 1 1 4 5 2 4 16 5 3 4 1 5 5 5 3 3 5 3 6 4 4 5 6 2 2 5 10 13 13 13 14
1 1 3 4 7 4 3 3 4 3 7 16 8 7 8 5 3 5 2 4 2 11 6 6 4 4 7 7 3 2 1 2 2 5 6 7 8 5 4 4 7 10 15 18 18
1 2 3 2 3 5 9 6 8 5 2 6 4 7 5 8 9 10 8 5 6 5 9 3 3 5 3 5 3 6 8 7 6 6 6 8 4 4 5 9 11 14 17 17 17
1 2 4 2 1 4 6 8 7 6 10 15 6 2 5 6 21 18 11 4 5 7 7 7 5 3 4 4 3 6 6 3 5 6 6 6 4 5 2 10 12 14 15 15 13
Wind_Direction
318 324 315 325 306 290 260 255 254 258 268 286 303 312 318 318 314 299 291 266 247 11 33 51 54 84 138 84 77 237 51 333 3 354 164 150 137 161 154 143 156 198 187 166 159
309 316 308 322 309 291 263 255 256 258 271 287 304 317 323 322 323 303 336 262 189 103 71 14 29 54 80 26 27 47 71 283 285 286 198 163 134 141 127 154 53 110 141 153 163
303 308 303 308 298 288 266 256 257 260 271 286 307 317 326 329 338 32 11 142 139 115 115 29 50 56 58 34 9 343 203 329 317 332 197 151 145 124 132 252 191 145 149 163 170
300 298 297 301 293 283 267 255 256 261 269 286 305 316 326 326 231 334 22 165 147 134 94 98 205 88 83 73 343 356 332 339 322 319 217 147 145 135 161 202 168 160 158 169 177
296 290 290 291 288 280 264 250 256 260 267 283 303 314 328 310 285 342 245 163 131 132 109 76 57 137 103 75 313 147 328 340 329 301 103 133 134 139 115 141 152 153 161 169 183
290 286 286 285 285 279 263 250 255 259 264 279 300 311 317 298 244 326 165 149 142 151 201 250 76 84 103 132 222 185 297 317 317 309 29 103 90 109 152 151 155 163 172 180 185
283 280 280 279 279 279 264 249 253 258 263 277 299 310 299 271 222 255 169 166 159 144 69 202 159 19 328 62 327 359 353 336 292 264 155 123 15 107 158 160 161 173 181 186 191
280 278 276 274 275 276 266 248 250 257 262 278 299 307 273 230 211 199 178 170 204 214 259 252 213 342 5 100 48 18 45 331 287 2 207 133 208 128 168 165 172 182 190 196 206
277 274 273 272 272 273 263 247 247 254 261 273 289 293 266 229 235 207 199 178 174 232 136 107 169 160 174 111 52 37 254 232 302 195 143 101 139 201 180 181 183 194 196 204 211
272 272 270 273 271 269 259 250 255 261 264 270 262 294 251 265 221 213 205 209 237 214 177 125 133 103 170 119 193 193 235 261 250 285 158 140 135 168 184 192 198 202 205 211 215
267 267 266 269 269 262 236 205 247 253 248 229 261 254 301 331 215 216 206 199 177 145 85 55 120 140 238 190 287 207 216 257 240 248 139 217 125 191 197 204 206 213 211 216 221
264 261 261 262 260 254 213 176 120 59 306 269 252 258 261 261 295 232 210 186 145 112 39 88 196 213 229 256 244 253 263 268 281 232 157 158 242 146 181 213 208 214 215 220 222
258 256 257 258 257 250 233 153 325 318 263 282 239 248 240 231 233 240 203 192 126 145 204 176 211 163 201 248 257 255 231 258 212 73 58 111 328 252 198 216 222 228 225 224 222
255 249 247 248 252 234 149 142 331 171 49 272 220 240 210 200 260 227 203 182 77 171 173 216 197 193 218 237 203 265 232 238 163 124 183 72 254 264 222 228 220 226 228 227 226
252 243 232 225 227 170 155 309 227 145 349 176 196 165 184 169 192 191 195 184 170 183 143 255 185 188 232 215 166 225 77 172 154 93 114 118 64 266 160 230 234 226 231 234 232
249 236 228 231 229 192 263 324 149 41 261 311 161 167 125 196 249 118 166 189 155 156 230 238 231 220 214 226 191 266 108 65 87 90 27 230 150 276 188 213 239 225 233 238 236
247 233 228 227 214 193 172 147 49 134 317 307 227 157 71 148 252 152 164 215 189 98 356 331 270 275 200 309 47 97 65 353 4 15 222 255 144 242 248 232 210 212 226 233 238
245 234 231 221 194 192 149 63 159 229 241 306 340 88 149 188 267 208 130 211 167 100 107 264 321 217 148 190 194 199 154 158 201 196 263 49 232 253 253 260 223 242 239 237 235
244 238 238 207 197 203 157 102 214 205 239 323 327 126 204 188 144 288 187 208 193 153 188 137 276 291 228 229 147 186 185 174 108 40 85 240 302 321 34 45 55 24 52 214 216
235 239 237 189 185 164 87 228 241 191 188 138 353 88 276 168 152 165 172 116 179 179 125 227 298 286 292 322 232 182 153 77 23 131 196 316 299 268 356 338 37 25 37 96 164
209 242 201 171 167 158 159 231 289 349 52 147 240 249 123 308 78 120 194 140 189 91 151 161 142 286 323 50 208 348 70 59 110 108 146 126 286 274 273 199 111 56 55 53 51
195 20 157 156 117 121 178 192 316 182 14 330 289 235 160 185 128 188 241 246 172 156 210 207 174 302 253 276 232 209 156 106 114 229 80 128 289 350 355 355 99 83 84 95 100
167 64 162 168 144 212 245 224 216 251 31 345 259 214 62 133 231 185 193 240 219 138 176 193 46 325 344 356 8 64 70 100 108 92 175 122 239 38 17 59 90 94 88 85 85
166 88 166 239 260 149 167 281 232 272 213 80 280 85 172 1 57 233 263 283 202 116 70 120 160 165 196 220 215 27 353 98 113 101 175 194 160 227 323 108 80 81 84 89 75
226 245 161 211 276 198 80 8 334 345 227 222 238 226 184 165 126 247 240 301 250 201 190 179 254 178 229 241 180 107 291 272 146 157 154 186 148 195 190 123 88 77 88 86 78
68 17 343 249 251 181 143 212 215 243 224 275 273 209 150 168 191 206 158 221 229 87 165 204 248 172 291 317 83 62 17 75 50 94 58 105 119 144 126 124 83 80 87 80 79
44 310 270 294 12 135 201 197 230 156 251 233 262 179 199 239 213 212 116 131 157 173 186 163 147 122 236 338 69 13 329 352 61 41 125 152 200 125 116 64 59 97 95 95 102
Height
1516 1515 1515 1513 1513 1513 1513 1513 1513 1512 1512 1512 1512 1511 1509 1507 1505 1502 1500 1502 1501 1501 1501 1501 1500 1500 1502 1502 1501 1502 1510 1509 1500 1500 1494 1493 1494 1498 1498 1499 1502 1503 1501 1505 1512
1516 1514 1514 1513 1513 1512 1512 1512 1511 1512 1512 1512 1512 1510 1508 1505 1502 1500 1500 1499 1500 1500 1500 1499 1498 1498 1498 1499 1501 1501 1511 1504 1494 1492 1491 1491 1491 1496 1500 1502 1502 1503 1504 1509 1514
1514 1514 1513 1512 1511 1511 1511 1511 1511 1511 1511 1511 1511 1510 1508 1505 1502 1500 1499 1499 1498 1499 1501 1500 1499 1497 1499 1501 1504 1504 1509 1500 1491 1492 1490 1491 1494 1495 1498 1503 1500 1500 1505 1510 1514
1512 1513 1512 1511 1511 1511 1511 1510 1510 1510 1510 1510 1510 1509 1507 1505 1507 1501 1500 1499 1498 1500 1500 1499 1499 1499 1501 1504 1503 1505 1500 1504 1500 1490 1488 1489 1492 1496 1497 1497 1499 1502 1505 1509 1514
1511 1511 1510 1510 1509 1510 1510 1509 1509 1509 1510 1510 1509 1508 1507 1505 1501 1500 1500 1499 1500 1500 1501 1499 1498 1498 1501 1505 1506 1506 1503 1506 1500 1493 1488 1488 1491 1495 1499 1499 1504 1507 1511 1513 1516
1509 1509 1509 1509 1508 1509 1508 1508 1508 1508 1509 1509 1509 1508 1507 1506 1500 1500 1499 1500 1501 1502 1502 1501 1499 1496 1499 1504 1506 1506 1504 1502 1499 1495 1492 1492 1495 1494 1503 1502 1506 1509 1513 1516 1517
1508 1508 1507 1507 1507 1508 1507 1507 1507 1507 1508 1508 1507 1507 1505 1502 1500 1499 1500 1501 1501 1503 1504 1502 1501 1499 1498 1502 1503 1501 1504 1498 1496 1494 1497 1493 1501 1501 1502 1505 1507 1511 1513 1516 1517
1506 1506 1505 1505 1505 1506 1506 1505 1506 1506 1507 1507 1507 1506 1501 1499 1498 1498 1499 1501 1500 1502 1504 1505 1504 1505 1503 1507 1509 1510 1514 1522 1496 1494 1496 1496 1515 1504 1506 1506 1508 1511 1512 1514 1515
1504 1504 1504 1504 1504 1504 1504 1504 1504 1504 1505 1506 1506 1505 1498 1496 1496 1496 1497 1501 1500 1502 1506 1505 1506 1507 1506 1513 1520 1520 1529 1521 1505 1493 1494 1496 1510 1504 1506 1507 1508 1509 1510 1510 1511
1502 1502 1502 1502 1502 1503 1503 1503 1504 1503 1504 1504 1503 1507 1496 1493 1492 1494 1496 1501 1502 1501 1504 1506 1508 1510 1510 1516 1532 1524 1525 1514 1511 1494 1493 1499 1504 1501 1504 1506 1506 1507 1507 1508 1508
1500 1500 1500 1501 1501 1502 1502 1503 1506 1505 1502 1498 1497 1495 1492 1492 1492 1493 1495 1499 1501 1502 1506 1507 1513 1518 1497 1503 1503 1507 1511 1512 1501 1493 1497 1499 1500 1501 1502 1504 1505 1504 1504 1504 1505
1498 1498 1499 1499 1499 1500 1499 1501 1502 1505 1499 1492 1491 1490 1490 1491 1494 1491 1493 1498 1500 1507 1507 1510 1514 1503 1494 1498 1503 1505 1508 1507 1494 1486 1495 1500 1501 1499 1500 1498 1498 1498 1501 1501 1503
1496 1496 1497 1497 1498 1499 1498 1502 1502 1501 1500 1487 1485 1484 1486 1490 1488 1487 1490 1491 1497 1505 1505 1506 1498 1496 1500 1501 1503 1501 1506 1498 1505 1491 1493 1499 1507 1499 1497 1497 1497 1496 1497 1498 1499
1493 1494 1496 1497 1499 1497 1499 1500 1500 1499 1509 1490 1482 1479 1481 1486 1487 1484 1487 1490 1493 1498 1502 1502 1495 1496 1498 1499 1495 1512 1484 1487 1493 1503 1521 1499 1534 1505 1494 1496 1493 1492 1493 1493 1494
1491 1492 1494 1496 1495 1496 1498 1498 1498 1499 1530 1479 1476 1476 1476 1483 1480 1480 1483 1487 1493 1493 1495 1494 1490 1491 1493 1486 1484 1491 1478 1485 1490 1506 1510 1510 1526 1507 1494 1496 1490 1486 1485 1487 1489
1489 1490 1492 1493 1494 1495 1496 1497 1498 1515 1526 1480 1471 1474 1477 1477 1477 1479 1483 1485 1486 1489 1488 1485 1478 1479 1478 1472 1474 1471 1482 1497 1502 1513 1535 1514 1519 1511 1501 1488 1483 1480 1481 1481 1484
1487 1488 1489 1492 1493 1494 1494 1497 1514 1531 1486 1482 1476 1476 1477 1481 1479 1479 1484 1485 1492 1501 1501 1487 1479 1472 1470 1475 1470 1477 1497 1532 1530 1536 1538 1515 1520 1501 1479 1476 1472 1473 1475 1477 1479
1484 1485 1487 1490 1491 1492 1493 1498 1522 1499 1497 1477 1473 1476 1486 1486 1484 1480 1488 1492 1486 1492 1507 1509 1508 1473 1468 1472 1479 1482 1490 1524 1539 1547 1532 1508 1519 1496 1472 1468 1471 1473 1473 1474 1476
1483 1483 1485 1488 1490 1491 1493 1513 1505 1496 1489 1487 1479 1482 1486 1483 1483 1479 1486 1489 1487 1487 1501 1509 1501 1470 1467 1464 1466 1479 1493 1485 1520 1525 1530 1522 1503 1478 1473 1471 1472 1473 1469 1471 1473
1481 1482 1483 1486 1489 1491 1495 1508 1494 1486 1486 1487 1490 1481 1488 1480 1483 1486 1487 1484 1485 1484 1487 1493 1508 1474 1466 1461 1461 1466 1471 1497 1511 1533 1532 1529 1515 1512 1495 1487 1478 1476 1474 1475 1476
1481 1482 1481 1485 1490 1491 1504 1502 1489 1484 1482 1486 1487 1484 1481 1482 1477 1485 1488 1481 1480 1483 1484 1488 1499 1486 1472 1472 1476 1475 1479 1495 1504 1518 1537 1545 1529 1495 1493 1487 1483 1481 1478 1480 1482
1481 1482 1481 1485 1491 1492 1499 1493 1489 1486 1482 1483 1478 1475 1477 1478 1485 1483 1485 1476 1472 1476 1488 1485 1493 1499 1484 1461 1463 1468 1472 1487 1512 1514 1531 1531 1528 1492 1493 1490 1482 1483 1485 1487 1486
1481 1482 1484 1485 1495 1493 1489 1489 1486 1484 1485 1481 1477 1470 1473 1481 1492 1478 1476 1467 1470 1469 1481 1478 1493 1511 1489 1476 1465 1471 1469 1483 1495 1505 1519 1530 1527 1494 1496 1495 1490 1489 1491 1491 1491
1482 1486 1488 1488 1485 1485 1486 1485 1488 1482 1483 1488 1473 1474 1475 1478 1478 1479 1478 1465 1462 1465 1471 1479 1490 1494 1510 1491 1480 1478 1473 1475 1485 1511 1519 1518 1510 1499 1498 1497 1493 1494 1495 1495 1492
1481 1482 1482 1489 1483 1485 1487 1489 1489 1491 1480 1475 1475 1472 1471 1481 1484 1482 1475 1466 1466 1468 1477 1480 1493 1489 1483 1481 1474 1477 1478 1474 1477 1487 1494 1501 1506 1499 1498 1495 1495 1497 1495 1494 1494
1480 1481 1480 1479 1479 1480 1485 1491 1486 1482 1477 1473 1473 1464 1463 1473 1468 1471 1471 1471 1466 1468 1474 1476 1487 1483 1482 1476 1473 1485 1483 1480 1483 1490 1495 1501 1502 1494 1497 1497 1497 1493 1491 1492 1494
1481 1480 1481 1477 1477 1480 1481 1481 1475 1476 1469 1467 1466 1467 1467 1458 1454 1450 1461 1462 1463 1466 1471 1476 1483 1493 1497 1486 1483 1501 1495 1489 1488 1489 1493 1504 1497 1496 1499 1494 1492 1493 1493 1494 1496